Regional Weather Roundup
Issued by NWS

Home | Current Version | Previous Version | Graphics & Text | Print | Product List | Glossary On
Versions: 1 2 3 4 5 6 7 8 9 10 11 12 13 14 15 16 17 18 19 20 21 22 23 24 25 26 27 28 29 30 31 32 33 34 35 36 37 38 39 40 41 42 43 44 45 46 47 48 49 50
000
ASUS43 KBIS 241059
RWRND

NORTH DAKOTA REGIONAL WEATHER ROUNDUP
NATIONAL WEATHER SERVICE BISMARCK ND
500 AM CST MON NOV 24 2014

NOTE: "FAIR" INDICATES FEW OR NO CLOUDS BELOW 12,000 FEET WITH NO
SIGNIFICANT WEATHER AND/OR OBSTRUCTIONS TO VISIBILITY.


NDZ001>003-009>011-017-241200-
NORTHWEST NORTH DAKOTA

CITY           SKY/WX    TMP DP  RH WIND       PRES   REMARKS
WILLISTON      PTCLDY     5   2  87 CALM      29.86S
MINOT          CLEAR      6   1  80 NW9       29.81R WCI  -8
$$

NDZ018>021-031>035-040>046-241200-
SOUTHWEST NORTH DAKOTA

CITY           SKY/WX    TMP DP  RH WIND       PRES   REMARKS
BISMARCK       CLEAR     12   7  80 NW15G25   29.79R WCI  -4
GARRISON         N/A      7   3  84 NW9       29.79R WCI  -7
HETTINGER ARPT MOCLDY    17  13  84 NW14      29.77S WCI   3
$$

NDZ004>008-012>016-024-026-027-054-241200-
NORTHEAST NORTH DAKOTA

CITY           SKY/WX    TMP DP  RH WIND       PRES   REMARKS
GRAND FORKS    MIX PCPN  11   6  81 N21G32    29.65R WCI  -8
DEVILS LAKE    CLOUDY     9  -4  56 N17G29    29.69R WCI -10
$$

NDZ022-023-025-028>030-036>039-047>053-241200-
SOUTHEAST NORTH DAKOTA

CITY           SKY/WX    TMP DP  RH WIND       PRES   REMARKS
FARGO          LGT SNOW  14   8  77 NW24      29.61S WCI  -5
JAMESTOWN      LGT SNOW  12   7  80 NW24G32   29.65R WCI  -8
$$




USA.gov is the U.S. government's official web portal to all federal, state and local government web resources and services.